Regional Weather Roundup
Issued by NWS

Home | Current Version | Previous Version | Text Only | Print | Product List | Glossary On
Versions: 1 2 3 4 5 6 7 8 9 10 11 12 13 14 15 16 17 18 19 20 21 22 23 24 25 26 27 28 29 30 31 32 33 34 35 36 37 38 39 40 41 42 43 44 45 46 47 48 49 50
000
ASUS45 KABQ 021310
RWRNM
WEATHER ROUNDUP FOR NEW MEXICO
NATIONAL WEATHER SERVICE ALBUQUERQUE NM
600 AM MST MON MAR 02 2015

NOTE: "FAIR" MEANS FEW OR NO CLOUDS BELOW 12,000 FEET AGL WITH NO
       SIGNIFICANT WEATHER OR OBSTRUCTIONS TO VISION.

      THIS PRODUCT IS RELEASED AS TWO VERSIONS.  ONE VERSION NEAR
      THE TOP OF THE HOUR CONTAINING PRELIMINARY DATA FROM ALBUQUERQUE
      AND OTHER STATIONS.  A FINAL VERSION WITH ADDITIONAL DATA IS
      ISSUED ABOUT 10 MINUTES AFTER THE HOUR.

NMZ501-503-504-510>518-021400-
NORTHWEST PLATEAU/NORTHCENTRAL MOUNTAINS

CITY           SKY/WX    TMP DP  RH WIND       PRES   REMARKS
FARMINGTON     CLEAR     36  34  92 E12       29.96F WCI  28
LOS ALAMOS     CLOUDY    28  28 100 SW6       30.08F WCI  21
SANTA FE       CLOUDY    30  23  75 S13       30.09F WCI  20
TAOS           CLOUDY    28  25  86 S3        30.11S
ANGEL FIRE     CLOUDY    26  23  91 S10G20    30.11S WCI  15

$$
NMZ402-403-502-505>509-021400-
WESTCENTRAL MOUNTAINS/SOUTHWEST MOUNTAINS

CITY           SKY/WX    TMP DP  RH WIND       PRES   REMARKS
GALLUP         PTCLDY    31  28  89 CALM      29.98F
GRANTS         MOCLDY    38  28  66 S12       30.03S WCI  31
SILVER CITY    CLOUDY    50  28  43 NE3       30.08S

$$
NMZ407-409-411-412-021400-
SOUTHERN DESERTS

CITY           SKY/WX    TMP DP  RH WIND       PRES   REMARKS
LORDSBURG      PTSUNNY   55  32  41 SE9       30.02R
DEMING         CLOUDY    50  29  44 NE3       30.03S
LAS CRUCES     CLOUDY    53  29  40 CALM      30.05S
HOLLOMAN AFB   MOCLDY    48  33  55 SE5       30.07R
ALAMOGORDO     MOCLDY    48  32  53 NW10      30.08R
T OR C         CLOUDY    55  27  34 S8        30.02F

$$
NMZ519>523-021400-
CENTRAL VALLEYS/CENTRAL HIGHLANDS

CITY           SKY/WX    TMP DP  RH WIND       PRES   REMARKS
ALBUQUERQUE    CLOUDY    37  30  75 N10       30.06R WCI  30
DOUBLE EAGLE   MOCLDY    34  28  80 NE8       30.06F WCI  27
MORIARTY ARPT  CLOUDY    29  27  90 SE13      30.15S WCI  19
CLINES CORNERS FOG       26  24  92 SE9       30.11R VSB 3/4 WCI  17
BELEN          FAIR      37  32  81 N6        30.05S WCI  33
SOCORRO          N/A     47  28  48 CALM      30.02F

$$
NMZ524>526-539-540-021400-
SOUTHCENTRAL MOUNTAINS

CITY           SKY/WX    TMP DP  RH WIND       PRES   REMARKS
RUIDOSO        FOG       30  30 100 S6        30.17F VSB<1/4 WCI  24

$$
NMZ527>531-021400-
NORTHEAST HIGHLANDS/NORTHEAST PLAINS

CITY           SKY/WX    TMP DP  RH WIND       PRES   REMARKS
LAS VEGAS      CLOUDY    23  21  92 S16       30.12S WCI  10
RATON          CLOUDY    25  23  92 SW3       30.10F
CLAYTON        CLOUDY    24  22  91 S18       30.14F FOG     WCI  10

$$
NMZ532>537-021400-
EASTCENTRAL PLAINS

CITY           SKY/WX    TMP DP  RH WIND       PRES   REMARKS
TUCUMCARI      CLOUDY    29  27  92 SE7       30.23S WCI  22
CANNON AFB     NOT AVBL
CLOVIS AIRPORT CLOUDY    27  25  93 SE8       30.24F VSB 3/4 WCI  18

$$
NMZ028-029-538-021400-
SOUTHEAST PLAINS

CITY           SKY/WX    TMP DP  RH WIND       PRES   REMARKS
ROSWELL        CLOUDY    33  32  96 SE7       30.25R FOG     WCI  27
ARTESIA        CLOUDY    32  32 100 SE13      30.27S FOG     WCI  22
CARLSBAD       CLOUDY    34  31  88 E7        30.27S FOG     WCI  28
HOBBS          CLOUDY    30  30 100 NE6       30.28R FOG     WCI  24


$$


USA.gov is the U.S. government's official web portal to all federal, state and local government web resources and services.